Location: Newark
(45.8944°N, 12.5886°E)
Time: 01:28:35
(UTC+00:00)

EO-88 - Visible Passes

Search period start: 06 May 2021 00:00
Search period end: 16 May 2021 00:00
Orbit: 479 x 485 km, 97.3° (Epoch: 05 May)

Date Brightness Start Highest point End Pass type
(mag) Time Alt. Az. Time Alt. Az. Time Alt. Az.
06 May ? 20:32:35 52° SE 20:33:19 73° ENE 20:36:55 10° N visible
07 May ? 20:07:03 28° ESE 20:08:11 35° ENE 20:11:30 10° N visible
07 May ? 21:41:21 16° W 21:41:43 16° W 21:44:05 10° NW visible
08 May ? 19:41:31 15° E 19:43:08 19° ENE 19:45:45 10° NNE visible
08 May ? 21:15:49 30° WSW 21:16:20 31° W 21:19:36 10° NNW visible
09 May ? 19:17:25 10° ENE 19:18:11 11° ENE 19:18:57 10° NE visible
09 May ? 20:50:17 49° SSW 20:51:03 66° W 20:54:39 10° NNW visible
10 May ? 20:24:44 38° SE 20:25:51 58° ENE 20:29:24 10° N visible
10 May ? 21:59:05 10° W 21:59:36 10° W 22:00:08 10° W visible
11 May ? 19:59:12 21° ESE 20:00:44 29° ENE 20:03:53 10° N visible
11 May ? 21:33:30 19° WSW 21:34:10 20° W 21:36:52 10° NW visible
12 May ? 19:33:40 11° E 19:35:41 16° ENE 19:37:58 10° NNE visible
12 May ? 21:07:57 33° SW 21:08:47 38° W 21:12:12 10° NNW visible
13 May ? 20:42:25 43° S 20:43:30 83° WSW 20:47:08 10° NNW visible
14 May ? 20:16:52 29° SE 20:18:19 47° ENE 20:21:48 10° N visible
14 May ? 21:51:10 12° WSW 21:51:59 13° W 21:53:37 10° WNW visible
15 May ? 19:51:19 16° ESE 19:53:13 24° ENE 19:56:10 10° NNE visible
15 May ? 21:25:37 21° WSW 21:26:32 24° W 21:29:32 10° NW visible
